Temp
-8 -8 -8 -7 -7 -7 -7 -7 -7 -7 -7 -7 -7 -7 -7 -7 -7 -8 -8 -8 -8 -8 -8 -8 -8 -9 -9 -10 -11 -10 -10 -10 -10
-8 -8 -8 -8 -7 -7 -7 -7 -7 -7 -7 -7 -7 -7 -7 -7 -8 -8 -8 -8 -8 -8 -8 -8 -8 -9 -9 -9 -9 -10 -10 -10 -10
-8 -8 -8 -8 -8 -7 -7 -7 -7 -8 -7 -7 -7 -8 -7 -7 -8 -8 -8 -8 -8 -9 -8 -9 -9 -9 -9 -10 -10 -10 -11 -11 -11
-7 -7 -7 -7 -8 -7 -7 -7 -7 -8 -8 -7 -8 -8 -8 -8 -8 -8 -8 -9 -9 -9 -9 -9 -9 -10 -10 -11 -11 -11 -11 -11 -11
-7 -7 -8 -7 -7 -7 -8 -8 -8 -8 -8 -8 -8 -8 -8 -8 -8 -8 -9 -9 -9 -9 -9 -9 -10 -10 -11 -11 -11 -12 -12 -11 -12
-8 -8 -8 -8 -7 -8 -8 -8 -8 -8 -8 -8 -8 -8 -8 -8 -8 -9 -9 -9 -9 -9 -10 -10 -10 -11 -11 -11 -12 -12 -12 -12 -12
-8 -8 -8 -8 -8 -8 -8 -8 -8 -8 -8 -8 -9 -9 -9 -9 -9 -9 -9 -9 -9 -10 -10 -10 -11 -12 -12 -12 -12 -13 -13 -13 -13
-8 -8 -8 -8 -9 -8 -8 -8 -8 -8 -8 -9 -9 -9 -9 -9 -9 -10 -10 -10 -10 -10 -10 -11 -11 -13 -13 -13 -13 -13 -13 -14 -14
-8 -8 -8 -9 -9 -9 -9 -9 -9 -9 -9 -9 -10 -10 -9 -9 -10 -10 -10 -10 -10 -11 -11 -12 -13 -13 -13 -13 -14 -14 -14 -14 -14
-8 -8 -9 -9 -9 -9 -9 -9 -9 -9 -10 -10 -10 -10 -10 -10 -10 -10 -10 -10 -11 -11 -12 -13 -14 -14 -14 -14 -15 -15 -14 -15 -14
-8 -8 -9 -9 -9 -10 -10 -10 -10 -10 -10 -11 -11 -10 -10 -10 -10 -10 -11 -11 -11 -12 -13 -14 -14 -14 -15 -14 -15 -15 -15 -15 -15
-8 -9 -9 -9 -10 -10 -11 -10 -10 -11 -11 -11 -11 -10 -10 -10 -10 -11 -11 -11 -11 -12 -13 -14 -14 -15 -15 -15 -15 -15 -15 -15 -14
-9 -9 -9 -10 -10 -11 -11 -11 -11 -11 -12 -11 -10 -10 -11 -11 -11 -11 -11 -11 -12 -13 -13 -14 -15 -15 -15 -15 -16 -15 -15 -15 -15
-9 -10 -10 -10 -11 -11 -11 -11 -11 -11 -11 -11 -11 -11 -11 -11 -11 -11 -12 -12 -13 -13 -14 -15 -15 -15 -15 -15 -15 -15 -15 -15 -14
-10 -10 -11 -11 -11 -11 -11 -11 -11 -11 -11 -11 -12 -11 -11 -11 -11 -12 -12 -13 -14 -14 -14 -15 -15 -15 -15 -16 -15 -15 -15 -15 -15
-11 -11 -11 -11 -11 -12 -11 -11 -11 -12 -12 -12 -12 -12 -12 -12 -12 -12 -12 -13 -14 -14 -14 -15 -15 -15 -15 -16 -16 -15 -15 -15 -15
-11 -12 -12 -12 -12 -12 -12 -12 -12 -12 -12 -12 -13 -12 -12 -12 -12 -13 -13 -14 -14 -14 -15 -15 -16 -15 -15 -16 -16 -16 -15 -15 -15
-12 -12 -12 -12 -12 -13 -13 -13 -12 -13 -13 -13 -13 -13 -13 -13 -13 -13 -14 -14 -15 -15 -15 -15 -16 -16 -16 -16 -16 -16 -16 -16 -15
-13 -13 -13 -13 -13 -13 -13 -13 -13 -13 -13 -13 -13 -13 -13 -14 -14 -14 -14 -14 -15 -15 -15 -15 -16 -16 -16 -16 -16 -16 -16 -15 -15
-13 -13 -13 -14 -14 -14 -14 -14 -13 -14 -14 -13 -13 -13 -14 -14 -14 -14 -15 -15 -15 -15 -15 -16 -16 -16 -16 -16 -16 -16 -16 -15 -15
Height
5916 5915 5914 5913 5912 5911 5910 5908 5906 5904 5902 5898 5895 5892 5888 5884 5880 5875 5871 5866 5861 5857 5852 5846 5840 5833 5828 5823 5819 5817 5815 5812 5810
5910 5909 5908 5908 5906 5905 5903 5901 5900 5898 5895 5892 5888 5885 5882 5877 5873 5868 5863 5859 5854 5851 5845 5839 5834 5828 5821 5816 5813 5809 5806 5803 5799
5903 5902 5902 5901 5900 5899 5897 5896 5893 5891 5887 5885 5881 5878 5874 5870 5866 5861 5856 5851 5847 5842 5837 5832 5826 5820 5814 5808 5803 5799 5795 5792 5787
5896 5895 5895 5894 5893 5892 5891 5889 5886 5883 5881 5878 5874 5871 5867 5863 5858 5853 5848 5844 5839 5833 5828 5823 5817 5811 5804 5799 5794 5789 5785 5780 5775
5891 5890 5889 5887 5887 5885 5884 5882 5880 5877 5874 5870 5866 5863 5859 5854 5850 5845 5840 5835 5830 5824 5819 5813 5807 5801 5795 5790 5786 5779 5773 5769 5764
5884 5884 5883 5882 5880 5879 5877 5876 5873 5870 5867 5863 5859 5854 5850 5846 5841 5836 5831 5826 5821 5816 5809 5802 5796 5790 5784 5779 5774 5769 5764 5758 5753
5877 5875 5875 5874 5873 5872 5870 5868 5865 5862 5859 5854 5850 5845 5841 5837 5832 5827 5821 5816 5810 5804 5798 5792 5785 5779 5773 5769 5763 5759 5755 5748 5743
5869 5868 5867 5865 5864 5862 5861 5860 5857 5853 5850 5845 5841 5838 5832 5827 5822 5817 5811 5805 5799 5793 5787 5782 5776 5769 5764 5759 5753 5749 5745 5739 5734
5862 5861 5859 5857 5855 5854 5853 5851 5848 5844 5840 5837 5833 5828 5822 5818 5812 5806 5801 5795 5789 5782 5776 5771 5765 5760 5754 5747 5741 5738 5735 5729 5725
5853 5852 5851 5848 5847 5846 5844 5842 5839 5835 5833 5829 5824 5819 5813 5809 5803 5797 5792 5786 5779 5773 5767 5760 5754 5748 5743 5737 5732 5730 5726 5720 5716
5843 5842 5841 5839 5838 5837 5835 5833 5830 5827 5823 5818 5815 5809 5804 5800 5794 5789 5782 5776 5769 5763 5756 5750 5744 5737 5732 5727 5723 5721 5718 5713 5709
5833 5833 5832 5831 5829 5828 5826 5823 5820 5818 5813 5808 5804 5799 5795 5790 5785 5779 5773 5765 5759 5752 5746 5739 5733 5728 5723 5718 5714 5712 5709 5706 5703
5825 5825 5824 5822 5821 5819 5817 5814 5811 5808 5804 5799 5793 5789 5784 5780 5775 5769 5763 5756 5749 5742 5735 5730 5724 5718 5714 5712 5709 5706 5703 5700 5696
5817 5816 5814 5813 5811 5809 5807 5804 5801 5798 5793 5788 5783 5779 5773 5769 5764 5759 5753 5746 5739 5733 5726 5721 5716 5712 5707 5705 5703 5700 5697 5694 5690
5808 5806 5804 5803 5801 5799 5797 5794 5791 5787 5783 5777 5772 5768 5763 5760 5755 5749 5742 5736 5729 5723 5718 5713 5709 5705 5701 5698 5696 5694 5692 5688 5684
5797 5796 5795 5794 5792 5788 5786 5783 5779 5775 5770 5766 5761 5757 5752 5748 5744 5738 5733 5726 5720 5715 5710 5705 5700 5698 5696 5693 5691 5688 5687 5683 5679
5788 5786 5784 5783 5780 5777 5773 5770 5767 5763 5759 5755 5750 5745 5740 5736 5731 5726 5721 5716 5711 5707 5701 5696 5693 5691 5689 5687 5685 5684 5681 5678 5675
5776 5775 5773 5771 5768 5765 5763 5759 5755 5751 5747 5743 5738 5733 5729 5724 5719 5715 5711 5706 5703 5699 5694 5690 5687 5685 5683 5682 5681 5679 5677 5674 5670
5763 5762 5760 5759 5757 5754 5751 5747 5743 5739 5736 5732 5727 5722 5718 5714 5709 5705 5701 5697 5693 5690 5686 5683 5681 5679 5678 5678 5676 5674 5672 5670 5667
5751 5750 5748 5746 5744 5740 5737 5734 5730 5727 5724 5719 5715 5711 5707 5703 5700 5696 5693 5688 5683 5680 5678 5677 5675 5674 5673 5672 5671 5670 5668 5666 5663
Wind_Speed
22 25 24 22 23 25 24 24 24 25 27 28 28 28 28 29 29 30 31 31 33 35 39 41 44 47 44 40 36 34 29 29 30
24 26 29 28 27 28 28 27 28 28 30 30 31 31 30 32 32 33 33 33 35 34 39 36 41 42 37 34 35 36 35 35 38
23 27 30 30 29 29 30 29 31 30 32 33 32 33 33 35 35 35 35 34 34 36 36 37 39 36 35 35 35 38 40 39 41
22 24 26 28 29 30 31 31 33 33 35 36 35 35 35 37 36 36 37 37 36 38 36 37 39 42 39 37 39 38 38 42 41
22 25 26 27 28 31 32 32 34 35 36 37 37 36 37 39 39 40 39 39 38 39 39 41 42 40 40 39 40 41 42 43 40
25 27 30 31 32 33 33 33 35 37 37 37 38 39 40 40 42 41 41 40 39 40 42 44 43 45 45 47 45 40 39 38 37
27 28 29 31 32 33 33 34 36 38 39 40 39 41 42 42 41 41 41 40 41 42 45 45 47 45 43 40 39 37 38 37 37
27 28 30 31 33 33 32 34 38 40 41 42 41 41 44 43 42 41 41 42 43 45 45 46 45 39 42 44 47 43 39 34 35
28 30 31 33 34 35 35 38 40 42 43 43 42 43 45 44 43 43 43 44 45 46 46 45 38 44 45 46 43 40 33 35 33
30 30 32 35 36 35 37 40 42 44 44 42 43 45 46 46 45 45 44 44 47 45 45 42 44 45 45 44 38 34 31 31 31
31 32 33 35 35 36 38 41 43 44 43 44 46 46 46 46 45 44 45 47 48 47 46 46 49 48 42 35 34 34 30 28 31
30 31 32 33 34 36 40 42 43 43 44 47 48 47 46 46 46 45 46 48 49 50 49 50 46 44 37 33 31 28 25 27 29
27 27 30 33 36 38 40 41 42 44 46 47 46 46 47 48 47 46 47 48 50 48 47 42 39 37 32 26 24 23 27 25 27
31 30 31 32 34 36 38 41 43 45 44 44 47 48 50 50 46 46 48 48 47 46 43 39 36 32 31 31 24 26 28 28 25
33 34 34 35 37 39 40 41 41 42 42 46 49 50 51 46 42 45 48 45 44 44 42 35 35 31 31 23 22 26 26 26 23
38 38 39 38 39 40 39 38 39 40 44 47 49 48 46 43 42 44 43 41 44 44 43 38 33 27 27 24 24 23 22 22 24
40 40 41 39 39 37 38 40 42 43 45 45 46 46 44 43 43 42 42 43 42 40 35 31 22 23 24 20 17 18 20 23 23
39 40 40 41 40 40 42 44 44 45 46 45 44 43 42 42 41 41 40 40 38 34 30 24 22 25 21 17 17 21 21 26 22
41 43 42 41 42 45 44 46 46 46 46 44 42 40 40 38 34 38 36 40 37 33 25 20 21 19 18 19 21 22 23 25 22
45 47 45 45 47 46 45 44 45 46 43 40 39 38 36 34 35 37 36 34 36 31 22 19 20 19 18 20 21 21 23 22 21
Wind_Direction
270 272 278 283 286 289 296 302 307 310 313 315 311 317 315 314 311 310 312 314 319 319 319 316 315 313 313 309 303 301 296 297 300
267 267 274 281 284 287 296 300 303 307 310 312 311 315 316 315 311 308 311 311 317 319 319 313 313 313 307 303 299 293 290 297 297
267 267 272 278 281 285 293 293 296 302 308 309 307 311 315 313 311 309 309 309 311 315 317 310 312 312 306 301 297 291 292 301 300
278 276 278 280 283 285 289 292 295 300 303 305 306 310 312 311 313 309 309 307 307 313 311 311 306 310 306 305 302 297 294 299 299
282 277 277 280 283 285 288 289 290 294 298 303 304 307 308 310 313 311 308 308 308 309 311 308 307 307 307 310 305 296 297 298 298
280 276 275 276 279 282 284 285 286 291 297 300 302 305 307 312 314 311 308 309 308 310 311 311 306 306 306 305 308 300 303 298 297
282 278 277 277 277 278 281 282 286 292 296 301 305 307 310 314 314 311 310 309 311 311 311 309 309 310 309 309 307 307 309 303 301
284 282 281 281 282 282 282 283 289 294 299 302 306 309 310 312 313 311 311 311 311 311 309 307 309 310 305 307 306 301 304 300 302
278 279 277 276 277 281 285 287 291 294 298 302 305 308 309 311 311 310 310 312 313 311 310 311 308 309 309 303 299 298 298 299 300
278 277 274 273 277 282 282 286 288 292 297 301 306 307 308 310 310 308 308 311 312 311 311 306 310 308 308 299 293 301 298 296 305
275 275 274 274 276 277 281 284 290 295 299 303 305 304 305 305 306 309 309 312 312 309 310 309 312 305 303 297 293 295 297 298 306
275 276 278 280 281 280 282 287 293 296 299 301 302 301 304 307 311 310 309 311 309 309 309 311 310 306 302 301 293 290 291 298 307
283 285 282 280 278 280 284 288 292 295 295 297 298 304 307 309 310 308 309 310 308 309 309 313 314 306 301 297 298 292 295 301 304
288 288 286 284 283 284 286 290 292 294 295 298 299 305 304 308 308 307 309 310 309 309 311 314 312 304 300 290 285 292 298 303 301
285 284 284 285 286 287 288 290 290 291 294 297 300 302 303 305 306 308 308 307 306 308 315 308 304 300 301 292 284 294 299 304 307
282 281 283 284 284 285 286 288 292 295 295 297 301 304 306 306 306 307 305 304 305 307 310 304 296 289 293 289 292 295 300 307 307
278 280 281 283 285 290 292 293 293 293 295 302 306 306 305 305 306 304 302 302 303 310 308 302 294 292 287 286 291 306 312 308 306
277 278 282 287 290 294 294 293 294 297 301 303 303 302 301 301 301 302 303 301 305 308 303 298 290 293 283 275 282 304 318 317 310
277 283 286 288 289 290 292 292 294 297 300 300 299 297 297 298 296 302 306 303 302 301 297 292 292 295 284 279 284 293 302 311 307
278 281 285 287 288 290 294 295 295 296 296 296 295 294 296 295 297 301 305 307 309 297 287 291 288 284 286 289 289 292 302 304 304